Погода Florennes

Погода Florennes : погода сейчас, прогноз погоды и архив. Всё, что Вы хотите узнать о погоде Florennes!

Поиск расширенной информации на нашем сайте:

Другие новости

Новости СМИ2

Главная страница сайта

Новости сайта

03.07.2017

Напоминаем, что на нашем специализированном сайте Метеоцентр.Азия вы можете получить высокодетализированные автоматические прогнозы погоды по пунктам России, СНГ и мира в авиационном формате (включающие направление и скорость ветра, видимость, явления погоды, количество и форму облачности, нижнюю и верхнюю границу облачности).


Погода Florennes - сегодня

Время (UTC), дата Ветер
(°,м/с) 
Видим.   Явления Облачность Т
(°С)
Тd
(°С)
f(%) Тe
(°С)
Pmin
(гПа)
dP
(гПа)
Po
(мм)
O2
(г/м3)
Тmin Tmax R s Состояние
почвы
12 22.09.18 //0 (С) //{00}  20000 м    н/о 
+14.8 +5.3 53 +15  1021.2  -0.7  741  282           
15 22.09.18 //0 (С) //{00}  20000 м  {дождь}  н/о 
+12.6 +8.6 77 +13  1020.2  -1.1  740  283           
18 22.09.18 //0 (С) //{00}  6000 м  слаб. дождь  н/о 
+10.4 +9.4 94 +11  1019.7  -0.8  739  285    +15.1     
21 22.09.18 //0 (С) //{00}  4500 м  слаб. морось{дождь}  н/о 
+10 +9.4 96 +11  1018.1  -1.5  738  285           
00 23.09.18 //0 (С) //{00}  2900 м  слаб. дождь{морось}  н/о 
+10 +9.7 98 +11  1014.3  -3.4  735  284         
03 23.09.18 //0 (С) //{00}  3300 м  слаб. дождь{морось}  н/о 
+13.6 +13.3 98 +20  1011.2  -2.6  733  279           
06 23.09.18 //0 (С) //{00}  7000 м  морось{дождь}  н/о 
+14.1 +13.9 99 +22  1010.8  -0.2  733  278  +9.8       
09 23.09.18 //0 (С) //{00}  7000 м  дымка{дождь, морось}  н/о 
+13.8 +13.4 97 +20  1010.1  -0.8  733  278           
12 23.09.18 //0 (С) //{00}  4100 м  дождь{морось}  н/о 
+11.5 +11.1 97 +15  1008.2  -2.4  731  280         
15 23.09.18 //0 (С) //{00}  20000 м  {дождь, морось}  н/о 
+10.5 +9.4 93 +11  1013.5  4.7  735  283           
18 23.09.18 //0 (С) //{00}  20000 м  слаб. дождь{морось}  н/о 
+8.6 +6.9 89 +9  1020.1  739  288    +18.5  12     
21 23.09.18 //0 (С) //{00}  16000 м  {дождь, морось}  н/о 
+8 +7 93 +8  1025  4.7  743  290           
00 24.09.18 //0 (С) //{00}  14000 м  {дождь, морось}  н/о 
+7 +6.4 96 +7  1028.9  3.4  746  292      0.2     
03 24.09.18 //0 (С) //{00}  6000 м  дымка  н/о 
+6.1 +5.9 99 +6  1031.7  2.6  748  294           
06 24.09.18 нст () 1{00}  4500 м  в посл. час туман  6/6 900 м верхняя 
[Cu Sc|Ci fib]
+6 +5.8 99 +7  1034  2.1  749  294  +5.2    0.2    сухая 
09 24.09.18 330 (СЗ) 2{00}  20000 м    4/1 900 м верхняя 
[Cu Sc|Ci fib]
+11.1 +7 76 +11  1035.4  1.9  751  289           
12 24.09.18 310 (СЗ) 3{00}  20000 м    5/3 840 м верхняя 
[Cu Sc|Ci fib]
+12 +4.9 62 +12  1036.2  0.7  751  289           
15 24.09.18 310 (СЗ) 3{00}  20000 м    4/4 1200 м верхняя 
[Cu Sc|Ci fib]
+11.6 +5.6 67 +11  1035.7  -0.4  751  289           
18 24.09.18 //0 (С) //{00}  20000 м    н/о 
+9.1 +5.1 76 +9  1036.7  0.7  751  292    +14.3       
21 24.09.18 //0 (С) //{00}  20000 м    н/о 
+7.4 +4.2 80 +7  1038.4  1.2  752  295           
00 25.09.18 //0 (С) //{00}  20000 м    н/о 
+5.6 +3.6 87 +6  1039.2  0.5  753  297           
03 25.09.18 //0 (С) //{00}  19000 м    н/о 
+3.5 +2.3 92 +4  1039.2  -0.2  753  299           
06 25.09.18 нст () 1{00}  6000 м  дымка  5/0 верхняя 
[Ci fib]
+3 +1.9 92 +4  1039.5  0.3  753  300  +3        сухая 
09 25.09.18 нст () 1{00}  15000 м    4/1 450 м верхняя 
[Cu hum|Ci fib]
+9.9 +5.9 76 +11  1040  1.2  754  292           
12 25.09.18 090 (В) 4{00}  20000 м    5/3 840 м верхняя 
[Cu hum|Ci fib]
+12.3 +5.3 62 +12  1039  -0.6  753  290           
Время (UTC), дата Ветер
(°,м/с) 
Видим.   Явления Облачность Т
(°С)
Тd
(°С)
f(%) Тe
(°С)
Pmin
(гПа)
dP
(гПа)
Po
(мм)
O2
(г/м3)
Тmin Tmax R s Состояние
почвы

Для получения пояснительной информации подведите курсор к названию столбца.

ПОГОДА Florennes - архив

Всё, что Вы хотите узнать о погоде Florennes - удобно и подробно!

Выберите нужную дату (начиная с 1 января 2015* года) и нажмите кнопку "Найти".
Будут отображены архивные сводки погоды по пункту Florennes, начиная с указанной даты.


Отображать данные в формате CSV (для использования в таблицах Excel)


Внимание! Наш архив погоды предназначен исключительно для личного некоммерческого использования в познавательных целях. Если Вам необходимы официальные справки о состоянии погоды (для производственных, юридических, коммерческих и т.п. целей), обращайтесь в органы Росгидромета.

*Примечание: данная дата относится к архиву по метеостанциям СССР (Россия, СНГ, Балтия).
Архив по метеостанциям Зарубежной Европы и Азии (кроме Китая) хранится 10 дней, по другим регионам земного шара (Китай, Африка, Америка, Австралия, Океания) - 1 день.

Florennes - район местоположения метеостанции


Название, широта, долгота, высота метеостанции:
Florennes 50.2°ш. 4.6°д. 299 м над ур. моря [Belgium]

Дополнительная информация

В oтличие oт бoльшинства пoгoдных сайтoв мы публикуем пoдрoбную метеoинфoрмацию в детальнoм прoфессиoнальнoм фoрмате.

Характеристики температуры и влажнoсти вoздуха измеряются на высoте 2 м в тени вдали oт зданий и деревьев.
Скoрoсть ветра измеряется на высoте 10 м (на урoвне рoста челoвека скoрoсть ветра ниже в 1.5-2 раза). Если метеoстанция нахoдится в гoрoде или в лесу, тo скoрoсть ветра занижена на 2-4 м/с пo сравнению с oткрытым местoм. Скoрoсть ветра над акватoриями крупных рек и oзёр, а также на вершинах хoлмoв на 2-5 м/с выше, чем в oбычных услoвиях.
Атмoсфернoе давление в разных тoчках местнoсти мoжет значительнo oтличаться oт давления на метеoстанции, в зависимoсти oт услoвий рельефа (при пoдъёме на 10 м давление пoнижается примернo на 1 мм рт.ст.).